Вернуться в каталог

DELTA 1 DEB

АктивенSSO
NORAD 21377·DEBRIS·🇺🇸 United States

Запущен Jun 12, 1975 с Vandenberg Space Force Base

Loading…

Ближайшие Пролёты (ближайшие 24 часа)

TLE

СвежийSource: Space-Track

Эпоха: Sep 13, 2026, 12:11 UTC

1 21377U 75052CX  26256.50773132  .00001076  00000-0  18706-2 0  9996
2 21377 100.2986 267.6719 0223910 174.5520 339.7601 13.36927378705311

Отслеживайте DELTA 1 DEB в реальном времени с AllMySat

Download on the App Store